Location: Piotrkow Trybunalski
(51.4000°N, 19.6830°E)
Time: 07:11:14
(UTC+02:00)

STRAND 1 - Pass Details

Date: 25 February 2024
Orbit: 764 x 779 km, 98.4° (Epoch: 24 April)

Event Time Altitude Azimuth Distance (km) Brightness Sun altitude
Rises 03:58:55 0° 131° (SE) 3,255 ? -25.1°
Reaches altitude 10° 04:01:28 10° 120° (ESE) 2,332 ? -24.7°
Maximum altitude 04:05:53 30° 61° (ENE) 1,376 ? -24.0°
Drops below altitude 10° 04:10:20 10° 2° (N) 2,346 ? -23.4°
Sets 04:12:53 0° 352° (N) 3,277 ? -23.0°
